Change the Weather History Date:

Saturday, April 6, 2013

  Actual Average Record
Temperature  
Mean Temperature 42 °F 38 °F  
Max Temperature 54 °F 51 °F 80 °F (1969)
Min Temperature 30 °F 26 °F 5 °F (1936)
Degree Days  
Heating Degree Days 23 26  
Month to date heating degree days 163 165  
Since 1 July heating degree days 7347 7545  
Cooling Degree Days 0 0  
Month to date cooling degree days 0 0  
Year to date cooling degree days 0 0  
Moisture  
Dew Point 36 °F    
Average Humidity 73    
Maximum Humidity 96    
Minimum Humidity 50    
Precipitation  
Precipitation T in 0.04 in 0.63 in (2001)
Month to date precipitation T 0.22  
Year to date precipitation 0.43 1.54  
Sea Level Pressure  
Sea Level Pressure 29.74 in    
Wind  
Wind Speed 11 mph (NW)    
Max Wind Speed 21 mph    
Max Gust Speed 26 mph    
Visibility 10 miles    
Events      
T = Trace of Precipitation, MM = Missing Value Source: NWS Daily Summary

Daily Weather History Graph

Daily Weather History Graph

Search for Another Location

Airport or City:

Trip Planner

Search our weather history database for the weather conditions in past years. The results will help you decide how hot, cold, wet, or windy it might be!

Date:

Astronomy

Apr. 06, 2013 Rise Set
Actual Time 6:20 AM MDT 7:27 PM MDT
Civil Twilight 5:49 AM MDT 7:58 PM MDT
Nautical Twilight 5:11 AM MDT 8:36 PM MDT
Astronomical Twilight 4:32 AM MDT 9:15 PM MDT
Moon 4:18 AM MDT (4/6) 3:47 PM MDT (4/6)
Length of Visible Light 14h 09m
Length of Day
13h 07m
Waning Crescent, 14% of the Moon is Illuminated
Apr 6
Waning Crescent
Apr 10
New
Apr 18
First Quarter
Apr 25
Full
May 2
Last Quarter

Hourly Weather History & Observations

Time (MDT) Temp. Windchill Dew Point Humidity Pressure Visibility Wind Dir Wind Speed Gust Speed Precip Events Conditions
12:56 AM 48.0 °F - 42.1 °F 80% 29.65 in 10.0 mi West 9.2 mph - N/A   Overcast
1:56 AM 46.9 °F - 42.1 °F 83% 29.65 in 10.0 mi West 12.7 mph 21.9 mph N/A   Clear
2:56 AM 44.1 °F 38.6 °F 41.0 °F 89% 29.65 in 10.0 mi West 10.4 mph - N/A   Clear
3:56 AM 44.1 °F 38.6 °F 41.0 °F 89% 29.65 in 10.0 mi West 10.4 mph - N/A   Clear
4:56 AM 43.0 °F 37.2 °F 39.9 °F 89% 29.65 in 10.0 mi West 10.4 mph - N/A   Partly Cloudy
5:56 AM 43.0 °F 38.2 °F 41.0 °F 93% 29.66 in 10.0 mi WNW 8.1 mph - N/A   Overcast
6:56 AM 42.1 °F 35.7 °F 39.9 °F 92% 29.69 in 10.0 mi WNW 11.5 mph - N/A   Clear
7:56 AM 46.0 °F 40.6 °F 43.0 °F 89% 29.70 in 10.0 mi NW 11.5 mph - N/A   Scattered Clouds
8:56 AM 48.0 °F - 37.9 °F 68% 29.70 in 10.0 mi NW 17.3 mph - N/A   Clear
9:56 AM 51.1 °F - 37.9 °F 61% 29.73 in 10.0 mi NW 19.6 mph - N/A   Clear
10:56 AM 52.0 °F - 37.0 °F 57% 29.73 in 10.0 mi NNW 16.1 mph 25.3 mph N/A   Clear
11:56 AM 52.0 °F - 36.0 °F 54% 29.74 in 10.0 mi NNW 17.3 mph 20.7 mph N/A   Clear
12:56 PM 52.0 °F - 36.0 °F 54% 29.75 in 10.0 mi NNW 13.8 mph - N/A   Clear
1:56 PM 52.0 °F - 36.0 °F 54% 29.75 in 10.0 mi NW 11.5 mph 17.3 mph N/A   Clear
2:56 PM 53.1 °F - 36.0 °F 52% 29.75 in 10.0 mi NNW 13.8 mph 23.0 mph N/A   Clear
3:56 PM 52.0 °F - 35.1 °F 53% 29.75 in 10.0 mi NNW 10.4 mph - N/A   Clear
4:56 PM 48.9 °F - 34.0 °F 56% 29.77 in 10.0 mi North 11.5 mph - N/A   Clear
5:56 PM 46.0 °F 40.2 °F 33.1 °F 61% 29.79 in 10.0 mi North 12.7 mph - N/A   Clear
6:56 PM 39.9 °F 32.9 °F 32.0 °F 73% 29.82 in 10.0 mi NNE 11.5 mph - N/A   Clear
7:56 PM 36.0 °F 29.0 °F 30.0 °F 79% 29.83 in 10.0 mi NNE 9.2 mph - N/A   Clear
8:56 PM 30.9 °F 25.2 °F 28.0 °F 89% 29.84 in 10.0 mi NE 5.8 mph - N/A   Clear
9:56 PM 30.0 °F 25.2 °F 27.0 °F 88% 29.85 in 10.0 mi ESE 4.6 mph - N/A   Clear
10:56 PM 30.9 °F 27.5 °F 28.9 °F 92% 29.84 in 9.0 mi SE 3.5 mph - N/A   Mostly Cloudy
11:56 PM 32.0 °F 28.7 °F 28.9 °F 88% 29.85 in 7.0 mi South 3.5 mph - N/A   Overcast